| time (UTC) | temp F | wind direction | speed MPH | gust MPH | rain 1hr in | rain 24hr in | rain mn in | humidity % | barometer mb |
| 20260904093541 | 70 | 0.0 | 3.0 | 0.00 | 0.00 | 0.00 | 83 | 1011.1 | |
| 20260904092520 | 70 | 270 | 2.0 | 5.0 | 0.00 | 0.00 | 0.00 | 83 | 1011.0 |
| 20260904091520 | 70 | 270 | 3.0 | 6.0 | 0.00 | 0.00 | 0.00 | 83 | 1011.0 |
| 20260904090520 | 71 | 270 | 3.0 | 6.0 | 0.00 | 0.00 | 0.00 | 83 | 1010.9 |
| 20260904085520 | 71 | 293 | 1.0 | 5.0 | 0.00 | 0.00 | 0.00 | 83 | 1010.7 |
| 20260904084521 | 71 | 293 | 2.0 | 4.0 | 0.00 | 0.00 | 0.00 | 83 | 1010.7 |
| 20260904083520 | 71 | 293 | 2.0 | 5.0 | 0.00 | 0.00 | 0.00 | 83 | 1010.5 |
| 20260904082520 | 71 | 293 | 2.0 | 6.0 | 0.00 | 0.00 | 0.00 | 84 | 1010.6 |
| 20260904081520 | 71 | 293 | 1.0 | 4.0 | 0.00 | 0.00 | 0.00 | 84 | 1010.4 |
| 20260904080540 | 72 | 293 | 2.0 | 6.0 | 0.00 | 0.00 | 0.00 | 84 | 1010.4 |
| 20260904075521 | 71 | 293 | 2.0 | 5.0 | 0.00 | 0.00 | 0.00 | 84 | 1010.3 |
| 20260904074540 | 71 | 293 | 1.0 | 4.0 | 0.00 | 0.00 | 0.00 | 84 | 1010.2 |
| 20260904073520 | 71 | 293 | 2.0 | 4.0 | 0.00 | 0.00 | 0.00 | 86 | 1010.1 |
| 20260904072522 | 71 | 293 | 2.0 | 4.0 | 0.00 | 0.00 | 0.00 | 88 | 1010.0 |
| 20260904071520 | 70 | 0.0 | 1.0 | 0.00 | 0.00 | 0.00 | 90 | 1010.0 | |
| 20260904070520 | 70 | 0.0 | 1.0 | 0.00 | 0.00 | 0.00 | 90 | 1010.1 | |
| 20260904065520 | 70 | 0.0 | 2.0 | 0.00 | 0.00 | 0.00 | 90 | 1010.0 | |
| 20260904064520 | 70 | 0.0 | 0.0 | 0.00 | 0.00 | 0.00 | 90 | 1010.0 | |
| 20260904063520 | 70 | 0.0 | 0.0 | 0.00 | 0.00 | 0.00 | 90 | 1010.1 | |
| 20260904062522 | 70 | 0.0 | 0.0 | 0.00 | 0.00 | 0.00 | 90 | 1010.2 | |
| 20260904061541 | 70 | 0.0 | 1.0 | 0.00 | 0.00 | 0.00 | 90 | 1010.2 | |
| 20260904060521 | 70 | 0.0 | 0.0 | 0.00 | 0.00 | 0.00 | 90 | 1010.4 | |
| 20260904055521 | 70 | 0.0 | 1.0 | 0.00 | 0.00 | 0.00 | 90 | 1010.5 | |
| 20260904054521 | 70 | 0.0 | 0.0 | 0.00 | 0.00 | 0.00 | 90 | 1010.4 | |
| 20260904053521 | 70 | 0.0 | 0.0 | 0.00 | 0.00 | 0.00 | 90 | 1010.5 | |
| 20260904052524 | 70 | 0.0 | 2.0 | 0.00 | 0.00 | 0.00 | 90 | 1010.6 | |
| 20260904051522 | 70 | 158 | 1.0 | 3.0 | 0.00 | 0.00 | 0.00 | 89 | 1010.7 |
| 20260904050521 | 70 | 180 | 1.0 | 2.0 | 0.00 | 0.00 | 0.00 | 89 | 1010.7 |
| 20260904045521 | 70 | 158 | 2.0 | 4.0 | 0.00 | 0.00 | 0.00 | 89 | 1010.8 |
| 20260904044521 | 70 | 180 | 2.0 | 4.0 | 0.00 | 0.00 | 0.00 | 89 | 1010.7 |
| 20260904043521 | 71 | 180 | 3.0 | 5.0 | 0.00 | 0.00 | 0.00 | 88 | 1010.7 |
| 20260904042521 | 71 | 180 | 1.0 | 4.0 | 0.00 | 0.00 | 0.00 | 88 | 1010.7 |
| 20260904041541 | 71 | 0.0 | 2.0 | 0.00 | 0.00 | 0.00 | 87 | 1010.6 | |
| 20260904040541 | 71 | 0.0 | 0.0 | 0.00 | 0.00 | 0.00 | 87 | 1010.4 | |
| 20260904035521 | 71 | 0.0 | 2.0 | 0.00 | 0.00 | 0.00 | 87 | 1010.6 | |
| 20260904034521 | 71 | 158 | 1.0 | 2.0 | 0.00 | 0.00 | 0.00 | 86 | 1010.5 |
| 20260904033521 | 72 | 203 | 1.0 | 2.0 | 0.00 | 0.00 | 0.00 | 86 | 1010.5 |
| 20260904032521 | 72 | 180 | 2.0 | 4.0 | 0.00 | 0.00 | 0.00 | 85 | 1010.4 |
| 20260904031541 | 72 | 180 | 1.0 | 4.0 | 0.00 | 0.00 | 0.00 | 84 | 1010.6 |
| 20260904030522 | 72 | 0.0 | 2.0 | 0.00 | 0.00 | 0.00 | 84 | 1010.7 | |
| 20260904025521 | 72 | 180 | 1.0 | 3.0 | 0.00 | 0.00 | 0.00 | 83 | 1010.7 |
| 20260904024521 | 73 | 203 | 3.0 | 5.0 | 0.00 | 0.00 | 0.00 | 84 | 1010.7 |
| 20260904023521 | 73 | 180 | 2.0 | 3.0 | 0.00 | 0.02 | 0.00 | 83 | 1010.7 |
| 20260904022521 | 73 | 158 | 2.0 | 3.0 | 0.00 | 0.02 | 0.00 | 81 | 1010.9 |
| 20260904021521 | 74 | 158 | 2.0 | 3.0 | 0.00 | 0.03 | 0.00 | 79 | 1010.6 |
| 20260904020521 | 74 | 0.0 | 1.0 | 0.00 | 0.03 | 0.00 | 78 | 1010.8 | |
| 20260904015521 | 75 | 180 | 1.0 | 2.0 | 0.00 | 0.03 | 0.00 | 77 | 1010.9 |
| 20260904014521 | 75 | 0.0 | 1.0 | 0.00 | 0.05 | 0.00 | 75 | 1010.9 | |
| 20260904013521 | 76 | 0.0 | 2.0 | 0.00 | 0.05 | 0.00 | 73 | 1011.0 | |
| 20260904012522 | 77 | 0.0 | 1.0 | 0.00 | 0.05 | 0.00 | 70 | 1010.5 | |
| 20260904011541 | 77 | 23 | 1.0 | 2.0 | 0.00 | 0.06 | 0.00 | 69 | 1010.7 |
| 20260904010521 | 77 | 0.0 | 0.0 | 0.00 | 0.09 | 0.00 | 69 | 1010.9 | |
| 20260904005520 | 77 | 0.0 | 0.0 | 0.00 | 0.11 | 0.00 | 68 | 1010.7 | |
| 20260904004521 | 78 | 0.0 | 2.0 | 0.00 | 0.12 | 0.00 | 67 | 1010.9 | |
| 20260904003521 | 78 | 0 | 1.0 | 2.0 | 0.00 | 0.12 | 0.00 | 66 | 1010.8 |
| 20260904002521 | 78 | 0 | 1.0 | 2.0 | 0.00 | 0.12 | 0.00 | 66 | 1010.8 |
| 20260904001540 | 78 | 0 | 2.0 | 3.0 | 0.00 | 0.12 | 0.00 | 66 | 1010.6 |
| 20260904000520 | 78 | 338 | 1.0 | 3.0 | 0.00 | 0.12 | 0.00 | 67 | 1010.6 |
| 20260903235520 | 79 | 0.0 | 2.0 | 0.00 | 0.12 | 0.00 | 68 | 1010.6 | |
| 20260903234541 | 79 | 338 | 2.0 | 4.0 | 0.00 | 0.12 | 0.00 | 65 | 1010.4 |
| 20260903233520 | 79 | 338 | 2.0 | 3.0 | 0.00 | 0.12 | 0.00 | 65 | 1010.6 |
| 20260903232520 | 79 | 338 | 3.0 | 6.0 | 0.00 | 0.12 | 0.00 | 66 | 1010.5 |
| 20260903231520 | 79 | 338 | 5.0 | 6.0 | 0.00 | 0.12 | 0.00 | 66 | 1010.5 |
| 20260903230520 | 80 | 23 | 5.0 | 7.0 | 0.00 | 0.12 | 0.00 | 67 | 1010.1 |
| 20260903225520 | 80 | 338 | 4.0 | 6.0 | 0.00 | 0.12 | 0.00 | 67 | 1010.2 |
| 20260903224520 | 80 | 23 | 4.0 | 7.0 | 0.00 | 0.12 | 0.00 | 67 | 1010.1 |
| 20260903223520 | 81 | 23 | 6.0 | 9.0 | 0.00 | 0.12 | 0.00 | 66 | 1010.0 |
| 20260903222520 | 82 | 23 | 3.0 | 5.0 | 0.00 | 0.12 | 0.00 | 62 | 1009.8 |
| 20260903221520 | 82 | 0 | 1.0 | 3.0 | 0.00 | 0.12 | 0.00 | 60 | 1010.0 |
| 20260903220520 | 83 | 23 | 3.0 | 4.0 | 0.00 | 0.12 | 0.00 | 60 | 1009.9 |
| 20260903215520 | 84 | 338 | 2.0 | 4.0 | 0.00 | 0.12 | 0.00 | 59 | 1009.9 |
| 20260903214520 | 83 | 270 | 2.0 | 4.0 | 0.00 | 0.12 | 0.00 | 61 | 1009.9 |
| 20260903213520 | 83 | 338 | 3.0 | 6.0 | 0.00 | 0.12 | 0.00 | 60 | 1010.0 |
| 20260903212540 | 84 | 338 | 3.0 | 6.0 | 0.00 | 0.12 | 0.00 | 59 | 1009.9 |
| 20260903211521 | 84 | 293 | 3.0 | 7.0 | 0.00 | 0.12 | 0.00 | 58 | 1009.9 |
| 20260903210520 | 85 | 315 | 3.0 | 5.0 | 0.00 | 0.12 | 0.00 | 57 | 1010.1 |
| 20260903205520 | 84 | 248 | 3.0 | 6.0 | 0.00 | 0.12 | 0.00 | 59 | 1010.2 |
| 20260903204520 | 84 | 338 | 2.0 | 5.0 | 0.00 | 0.12 | 0.00 | 58 | 1010.3 |
| 20260903203520 | 84 | 270 | 3.0 | 7.0 | 0.00 | 0.12 | 0.00 | 58 | 1010.4 |
| 20260903202520 | 84 | 293 | 2.0 | 4.0 | 0.00 | 0.12 | 0.00 | 58 | 1010.4 |
| 20260903201520 | 84 | 338 | 3.0 | 6.0 | 0.00 | 0.12 | 0.00 | 54 | 1010.4 |
| 20260903200520 | 86 | 293 | 2.0 | 4.0 | 0.00 | 0.12 | 0.00 | 54 | 1010.4 |
| 20260903195542 | 86 | 293 | 4.0 | 10.0 | 0.00 | 0.12 | 0.00 | 55 | 1010.3 |
| 20260903194522 | 85 | 293 | 4.0 | 10.0 | 0.00 | 0.12 | 0.00 | 55 | 1010.4 |
| 20260903193542 | 84 | 270 | 4.0 | 10.0 | 0.00 | 0.12 | 0.00 | 57 | 1010.6 |
| 20260903192521 | 85 | 315 | 4.0 | 7.0 | 0.00 | 0.12 | 0.00 | 56 | 1010.7 |
| 20260903191521 | 85 | 0 | 2.0 | 5.0 | 0.00 | 0.12 | 0.00 | 56 | 1010.7 |
| 20260903190521 | 84 | 293 | 4.0 | 10.0 | 0.00 | 0.12 | 0.00 | 55 | 1010.8 |
| 20260903185521 | 84 | 0 | 3.0 | 5.0 | 0.00 | 0.12 | 0.00 | 56 | 1010.9 |
| 20260903184521 | 84 | 293 | 3.0 | 6.0 | 0.00 | 0.12 | 0.00 | 55 | 1011.0 |
| 20260903183521 | 84 | 338 | 2.0 | 5.0 | 0.00 | 0.12 | 0.00 | 56 | 1011.0 |
| 20260903182521 | 84 | 23 | 3.0 | 7.0 | 0.00 | 0.12 | 0.00 | 57 | 1010.9 |
| 20260903181521 | 85 | 338 | 3.0 | 10.0 | 0.00 | 0.12 | 0.00 | 56 | 1011.0 |
| 20260903180521 | 84 | 338 | 4.0 | 8.0 | 0.00 | 0.12 | 0.00 | 57 | 1011.0 |
| 20260903175521 | 84 | 315 | 3.0 | 6.0 | 0.00 | 0.12 | 0.00 | 55 | 1011.1 |
| 20260903174521 | 83 | 23 | 4.0 | 12.0 | 0.00 | 0.12 | 0.00 | 56 | 1011.2 |
| 20260903173521 | 82 | 338 | 2.0 | 4.0 | 0.00 | 0.12 | 0.00 | 61 | 1011.2 |
| 20260903172522 | 81 | 248 | 3.0 | 6.0 | 0.00 | 0.12 | 0.00 | 63 | 1011.2 |
| 20260903171521 | 82 | 270 | 4.0 | 6.0 | 0.00 | 0.12 | 0.00 | 63 | 1011.3 |
| 20260903170542 | 82 | 0 | 2.0 | 5.0 | 0.00 | 0.12 | 0.00 | 64 | 1011.2 |
| 20260903165521 | 82 | 270 | 3.0 | 6.0 | 0.00 | 0.12 | 0.00 | 62 | 1011.3 |
| 20260903164521 | 82 | 248 | 3.0 | 6.0 | 0.00 | 0.12 | 0.00 | 66 | 1011.5 |
| 20260903163521 | 80 | 338 | 4.0 | 7.0 | 0.00 | 0.12 | 0.00 | 65 | 1011.6 |
| 20260903162521 | 80 | 293 | 4.0 | 9.0 | 0.00 | 0.12 | 0.00 | 67 | 1011.7 |
| 20260903161601 | 80 | 293 | 4.0 | 8.0 | 0.00 | 0.12 | 0.00 | 70 | 1011.7 |
| 20260903160521 | 80 | 293 | 4.0 | 7.0 | 0.00 | 0.12 | 0.00 | 69 | 1011.7 |
| 20260903155541 | 79 | 248 | 3.0 | 6.0 | 0.00 | 0.12 | 0.00 | 73 | 1011.8 |
| 20260903154520 | 79 | 293 | 4.0 | 10.0 | 0.00 | 0.12 | 0.00 | 74 | 1011.8 |
| 20260903153521 | 78 | 293 | 4.0 | 7.0 | 0.00 | 0.13 | 0.00 | 76 | 1011.9 |
| 20260903152521 | 78 | 293 | 4.0 | 7.0 | 0.00 | 0.19 | 0.00 | 77 | 1012.0 |
| 20260903151520 | 77 | 270 | 5.0 | 10.0 | 0.00 | 0.38 | 0.00 | 79 | 1012.0 |
| 20260903150521 | 76 | 293 | 5.0 | 12.0 | 0.00 | 0.70 | 0.00 | 80 | 1012.2 |
| 20260903145520 | 76 | 248 | 3.0 | 5.0 | 0.00 | 1.21 | 0.00 | 82 | 1012.2 |
| 20260903144523 | 75 | 270 | 3.0 | 6.0 | 0.00 | 1.27 | 0.00 | 83 | 1012.1 |
| 20260903143520 | 74 | 270 | 2.0 | 4.0 | 0.00 | 1.36 | 0.00 | 84 | 1012.1 |
| 20260903142520 | 74 | 248 | 3.0 | 6.0 | 0.00 | 1.55 | 0.00 | 84 | 1012.0 |
| 20260903141520 | 73 | 225 | 4.0 | 10.0 | 0.00 | 1.81 | 0.00 | 85 | 1012.0 |
| 20260903140520 | 73 | 225 | 2.0 | 7.0 | 0.00 | 1.92 | 0.00 | 85 | 1012.1 |
| 20260903135520 | 73 | 225 | 3.0 | 7.0 | 0.00 | 1.96 | 0.00 | 85 | 1011.8 |
| 20260903134520 | 73 | 225 | 3.0 | 6.0 | 0.00 | 1.98 | 0.00 | 85 | 1011.9 |
| 20260903133522 | 73 | 203 | 2.0 | 4.0 | 0.00 | 2.00 | 0.00 | 85 | 1012.0 |
| 20260903132520 | 73 | 225 | 2.0 | 6.0 | 0.00 | 2.00 | 0.00 | 84 | 1011.9 |
| 20260903131520 | 73 | 225 | 3.0 | 4.0 | 0.00 | 2.00 | 0.00 | 84 | 1011.9 |
| 20260903130520 | 73 | 225 | 4.0 | 7.0 | 0.00 | 2.00 | 0.00 | 83 | 1011.9 |
| 20260903125520 | 73 | 225 | 3.0 | 6.0 | 0.00 | 2.00 | 0.00 | 83 | 1011.8 |
| 20260903124521 | 73 | 225 | 2.0 | 5.0 | 0.00 | 2.00 | 0.00 | 83 | 1011.9 |
| 20260903123520 | 73 | 203 | 2.0 | 7.0 | 0.00 | 2.00 | 0.00 | 83 | 1011.8 |
| 20260903122520 | 73 | 248 | 2.0 | 5.0 | 0.00 | 2.00 | 0.00 | 84 | 1011.7 |
| 20260903121520 | 72 | 225 | 1.0 | 3.0 | 0.00 | 2.00 | 0.00 | 84 | 1011.8 |
| 20260903120540 | 72 | 158 | 2.0 | 4.0 | 0.00 | 2.00 | 0.00 | 84 | 1011.6 |
| 20260903115524 | 72 | 180 | 1.0 | 3.0 | 0.00 | 2.00 | 0.00 | 85 | 1011.6 |
| 20260903114520 | 71 | 248 | 2.0 | 3.0 | 0.00 | 2.00 | 0.00 | 86 | 1011.6 |
| 20260903113520 | 71 | 158 | 3.0 | 7.0 | 0.00 | 2.00 | 0.00 | 86 | 1011.5 |
| 20260903112520 | 71 | 135 | 1.0 | 2.0 | 0.00 | 2.00 | 0.00 | 86 | 1011.3 |
| 20260903111520 | 71 | 158 | 2.0 | 4.0 | 0.00 | 2.00 | 0.00 | 87 | 1011.1 |
| 20260903110520 | 71 | 158 | 1.0 | 2.0 | 0.00 | 2.00 | 0.00 | 87 | 1011.1 |
| 20260903105520 | 70 | 0.0 | 2.0 | 0.00 | 2.00 | 0.00 | 87 | 1010.9 | |
| 20260903104519 | 70 | 0.0 | 2.0 | 0.00 | 2.00 | 0.00 | 87 | 1011.0 | |
| 20260903103519 | 70 | 158 | 2.0 | 4.0 | 0.00 | 2.00 | 0.00 | 88 | 1011.1 |
| 20260903102522 | 70 | 135 | 1.0 | 3.0 | 0.00 | 2.00 | 0.00 | 88 | 1011.0 |
| 20260903101522 | 70 | 158 | 1.0 | 3.0 | 0.00 | 2.00 | 0.00 | 88 | 1010.9 |
| 20260903100541 | 70 | 135 | 1.0 | 2.0 | 0.00 | 2.00 | 0.00 | 88 | 1010.8 |
| 20260903095521 | 70 | 158 | 1.0 | 2.0 | 0.00 | 2.00 | 0.00 | 88 | 1010.9 |
| 20260903094522 | 70 | 158 | 1.0 | 3.0 | 0.00 | 2.00 | 0.00 | 88 | 1010.9 |